STARLINK-5494, 55650

Orbit data source: Space-Track

STARLINK-5494, 55650 is a payload satellite owned by SpaceX/Seattle (US) in LEO that was launched on Fri, 17 Feb 2023 UTC via an FALCON 9 launch vehicle from the Air Force Western Test Range (AFWTR). Payload-class satellites include a variety of spacecraft equipped with specific instruments for various scientific and technological missions. These include communications satellites like Starlink; space stations such as the ISS; scientific satellites like the Hubble; Earth observation satellites from companies like Planet Labs, Umbra, and HawkEye 360; GPS; miniature CubeSats for education and research; and military/defense satellites.

Loading next visibility...
Identifier
55650, 2023-021Y
Orbit
LEO
Country
Flag of USUS
Related business
Manufacturer
SpaceX/Seattle
Mission
Operational Commercial Communications
Bus & Motor
STARLINK, Unknown motor
Mass
305 kg wet, ~290 kg dry
Launch date (UTC)
2023-02-17 (3 years ago)
Launch vehicle
FALCON 9
Launch site
Air Force Western Test Range (AFWTR)
Object type
Payload
Rocket body
Debris
Shape & HBR
Box + 1 Pan, 10.1 m
Radar Cross Section
13.562 m², Large (>1 m²)

Expand to show TLE details & history
Last TLE update: 2 days ago

TLE from 2 days ago
0 STARLINK-5494
1 55650U 23021Y   26171.44584632 -.00000104  00000-0 -95505-6 0  9999
2 55650  69.9994 285.3523 0002949 267.5151  92.5670 14.98330226184187
Epoch: 2026-06-20T10:42Z
TLE epoch observation values (Epoch: 2026-06-20T10:42:01.122Z)
Latitude
-0.00004°
Longitude
-143.81275°
Altitude
574.571 km
Speed
7.574 km/s
True Right ascension
19h 01m 24s
True Declination
0° 00' 00"
Sunlit
Object was in full shadow at epoch
Visualization orbit readout
Latitude
Unknown
Longitude
Unknown
Altitude
Unknown
Speed
Unknown
Apparent Right ascension
Unknown
Apparent Declination
Unknown
Sunlit
N/A
Visualization observer readout
Local Sidereal Time
21:38:28
Azimuth
Unknown
Elevation
Unknown
Doppler factor
Unknown
Orbital elements
Apogee altitude
572.052 km
Perigee altitude
567.954 km
Semi-major axis
6,948.14 km
Eccentricity
0.00029
Inclination
69.9994°
RAAN
285.3523°
Arg. of periapsis
267.5151°
True anomaly
92.60076°
Mean anomaly
92.567°
Eccentric anomaly
92.58388°
Mean motion
3.74749 °/min
Orbital period
96.06 mins
BSTAR
-9.5505e-7
Loading maneuver chart data...
Computing Atmospheric mass density...

Documentation

Showing up to 5 results
|